Location: Unspecified
(44.5636°N, 0.0000°E)
Time: 03:30:11
(UTC+00:00)

HAI YANG 1B - Visible Passes

Search period start: 04 April 2026 00:00
Search period end: 14 April 2026 00:00
Orbit: 778 x 799 km, 98.3° (Epoch: 28 March)

Date Brightness Start Highest point End Pass type
(mag) Time Alt. Az. Time Alt. Az. Time Alt. Az.
4 Apr 7.6 04:35:51 10° NNE 04:41:00 64° ESE 04:46:09 10° S visible
5 Apr 8.7 04:06:08 10° NNE 04:10:51 34° E 04:15:32 10° SSE visible
6 Apr 9.6 03:36:55 10° NE 03:40:33 19° E 03:44:09 10° SE visible
7 Apr 7.3 04:45:12 10° NNE 04:50:24 78° ESE 04:55:37 10° S visible
8 Apr 8.4 04:15:22 10° NNE 04:20:17 42° E 04:25:12 10° SSE visible
9 Apr 9.4 03:45:57 10° NE 03:50:02 23° E 03:54:06 10° SE visible
10 Apr 9.9 03:17:36 10° ENE 03:19:39 12° E 03:21:41 10° ESE visible
10 Apr 7.1 04:54:34 10° NNE 04:59:47 87° WNW 05:05:01 10° SSW visible
11 Apr 8.0 04:24:39 10° NNE 04:29:43 51° E 04:34:47 10° S visible
12 Apr 9.1 03:55:04 10° NE 03:59:31 28° E 04:03:57 10° SSE visible
13 Apr 9.8 03:26:11 10° NE 03:29:10 15° E 03:32:08 10° SE visible
